Location: Newark
(28.9833°N, 10.0667°W)
Time: 09:56:18
(UTC+00:00)

Hubble Space Telescope - Pass Details

Date: 17 December 2019
Orbit: 536 x 540 km, 28.5° (Epoch: 18 January)

Event Time Altitude Azimuth Distance (km) Brightness Sun altitude
Exits shadow 04:44:49 15° 97° (E) 1,472 3.7 -34.5°
Drops below altitude 10° 04:45:41 10° 92° (E) 1,785 4.2 -34.3°
Sets 04:48:02 0° 85° (E) 2,678 5.3 -33.8°
